Location: Lombard
(41.8800°N, 88.0080°W)
Time: 11:48:21
(UTC-05:00)

A-11 Canister half - Pass Details

Date: 02 February 2023
Orbit: 1512 x 1687 km, 47.2° (Epoch: 20 March)

Event Time Altitude Azimuth Distance (km) Brightness Sun altitude
Rises 16:51:54 0° 296° (WNW) 4,718 12.2 2.0°
Reaches altitude 10° 16:55:00 10° 294° (WNW) 3,715 11.7 1.4°
Maximum altitude 17:04:15 71° 214° (SSW) 1,588 9.4 -0.1°
Drops below altitude 10° 17:13:23 10° 132° (SE) 3,666 10.7 -1.7°
Sets 17:16:25 0° 130° (SE) 4,652 11.2 -2.2°
